Weather Roundup
Issued by NWS

Home | Current Version | Previous Version | Graphics & Text | Print | Product List | Glossary Off
Versions: 1 2 3 4 5 6 7 8 9 10 11 12 13 14 15 16 17 18 19 20 21 22 23 24 25 26 27 28 29 30 31 32 33 34 35 36 37 38 39 40 41 42 43 44 45 46 47 48 49 50

000
NZUS93 KARX 210910
HRRWXR

CURRENT HOURLY OBSERVATIONS ACROSS
MUCH OF THE UPPER MISSISSIPPI VALLEY
NATIONAL WEATHER SERVICE LA CROSSE WI
400 AM CDT THU AUG 21 2014


...SOUTHEAST MINNESOTA...


CITY           SKY/WX    TMP DP  RH WIND       PRES   REMARKS
ROCHESTER      CLOUDY    69  66  90 SE9       29.85F
ROCHESTER/MAYO FAIR      70  65  85 SE6       29.84F
WINONA         CLOUDY    70  66  88 SE5       29.85F
AUSTIN         CLOUDY    70  68  94 SE7       29.84S
ALBERT LEA     LGT RAIN  70  68  94 SE12      29.79F
DODGE CENTER   LGT RAIN  70  66  88 SE8       29.83F
PRESTON        CLOUDY    69  69  99 SE7       29.87F FOG
OWATONNA       CLOUDY    72  66  83 SE10G16   29.79F
FARIBAULT      TSTM      73  64  73 SE8       29.79F
$$

...ELSEWHERE IN MINNESOTA...


CITY           SKY/WX    TMP DP  RH WIND       PRES   REMARKS
MINNEAPOLIS    CLOUDY    71  67  87 SE13      29.80F
INTNL FALLS    CLEAR     56  55  97 SE6       29.88R
DULUTH         FOG       61  59  93 E12       29.89F VSB 1
RED WING       CLOUDY    72  66  83 SE8       29.82S
REDWOOD FALLS  LGT RAIN  71  69  93 SE14      29.70F
MANKATO        CLOUDY    72  64  78 SE15      29.76F
WORTHINGTON    CLOUDY    73  14  10 NE5       29.75R THUNDER
FAIRMONT       CLOUDY    72  66  83 MISG      29.72F
$$

...SOUTHWEST WISCONSIN...


CITY           SKY/WX    TMP DP  RH WIND       PRES   REMARKS
LA CROSSE      CLOUDY    72  67  84 SE6       29.86F
PRAIRIE DU CHI MOCLDY    70  66  86 E3        29.87F
BOSCOBEL       HVY RAIN  68  65  90 SE6       29.90F FOG
LONE ROCK      TSTM      73  68  84 W5        29.93R
PLATTEVILLE    CLOUDY    70  66  87 E7        29.92S
FORT MC COY    MOCLDY    67  64  90 CALM      29.89F
CAMP DOUGLAS   MOCLDY    64  64 100 E7        29.90F FOG
VIROQUA        PTSUNNY   67  67 100 SE7       29.90F
WIS DELLS      MOCLDY    65  62  92 CALM      29.92S FOG
$$

...ELSEWHERE IN WISCONSIN...


CITY           SKY/WX    TMP DP  RH WIND       PRES   REMARKS
MILWAUKEE      MOCLDY    66  62  87 CALM      29.94S
MADISON        MOCLDY    70  67  90 S6        29.92S
GREEN BAY      PTCLDY    60  59  96 CALM      29.95S FOG
EAU CLAIRE     MOCLDY    66  64  93 SE8       29.87F
BLACK RVR FLS  FAIR      64  64 100 CALM      29.88F
MEDFORD        MOCLDY    60  60  98 SE3       29.93F
WAUSAU         PTCLDY    60  59  96 E7        29.93F
WIS RAPIDS     CLEAR     63  62  97 E3        29.93F
MARSHFIELD     CLEAR     63  61  93 E5        29.92F
RICE LAKE      PTCLDY    64  60  89 E7        29.89F
$$

...NORTHEAST IOWA...


CITY           SKY/WX    TMP DP  RH WIND       PRES   REMARKS
WATERLOO       MOCLDY    71  69  93 SE8       29.84F
DUBUQUE        CLOUDY    71  68  90 SE10      29.90F
DECORAH        MOCLDY    70  68  94 SE3       29.86F
MASON CITY     CLOUDY    70  70 100 SE10      29.82F FOG
CHARLES CITY   CLOUDY    70  68  94 SE8       29.85F
OELWEIN        PTCLDY    70  70 100 SE9       29.86F FOG
$$

...ELSEWHERE IN IOWA...


CITY           SKY/WX    TMP DP  RH WIND       PRES   REMARKS
DES MOINES     MOCLDY    77  71  82 S8        29.83R
IOWA CITY      CLOUDY    71  71 100 SE3       29.89S
FORT DODGE     PTCLDY    75  72  88 S12G17    29.79F
MARSHALLTOWN   CLOUDY    73  72  96 SE8       29.83F
CEDAR RAPIDS   CLOUDY    71  71 100 SE7       29.86F FOG
$$

...NORTHERN ILLINOIS...


CITY           SKY/WX    TMP DP  RH WIND       PRES   REMARKS
CHICAGO-OHARE  CLOUDY    71  65  81 CALM      29.94F
DUPAGE         MOCLDY    71  68  90 S3        29.95S
CHICAGO-MIDWAY MOCLDY    73  70  90 SW5       29.93F
MOLINE         MOCLDY    71  69  93 E5        29.89F
ROCKFORD       TSTM      71  67  87 E5        29.94F
STERLING       CLOUDY    70  66  88 S5        29.92S
PEORIA         LGT RAIN  73  69  87 S6        29.93F
$$

NOTE: "FAIR" INDICATES FEW OR NO CLOUDS BELOW 12,000 FEET WITH NO
SIGNIFICANT WEATHER AND/OR OBSTRUCTIONS TO VISIBILITY. WIND
SPEEDS ARE IN MILES-PER-HOUR.



USA.gov is the U.S. government's official web portal to all federal, state and local government web resources and services.